Theta_e
357 352 354 359 357 357 357 359 366 364 362 357 357 353 356 354 354 355 352 354 353 349
360 359 358 365 364 360 372 362 362 360 357 357 355 356 356 351 351 354 353 353 356 357
363 363 364 364 364 365 364 363 359 356 354 353 353 353 353 352 353 352 356 354 350 348
362 363 365 363 363 361 360 356 354 353 352 351 350 351 352 351 347 345 344 343 341 340
362 363 361 359 357 355 353 352 352 351 351 349 348 348 345 343 342 339 337 337 338 336
360 358 356 354 353 354 353 352 350 349 346 346 345 342 341 340 338 337 336 336 336 335
356 355 353 352 351 350 349 346 344 343 343 341 339 338 338 337 336 336 336 336 335 334
352 352 350 348 347 346 344 342 340 339 337 337 335 330 333 334 334 333 333 333 333 332
348 346 344 342 341 339 338 338 338 336 335 334 329 318 318 321 327 330 330 328 329 329
342 339 338 337 335 335 336 337 335 335 334 331 324 315 314 316 326 327 327 326 325 323
337 335 335 334 335 335 334 333 332 331 329 329 315 313 312 313 325 325 326 325 324 322
333 332 332 332 332 332 331 330 329 328 325 325 322 312 310 313 321 322 323 324 324 320
332 331 330 331 331 331 329 327 325 325 326 318 322 309 308 309 318 316 317 322 322 316
330 330 331 331 330 329 327 326 326 325 325 324 319 317 306 306 312 310 311 314 313 313
Wind_Speed
14 7 10 11 9 8 7 7 5 6 6 6 5 6 6 7 8 8 9 12 11 11
13 13 11 10 8 8 7 6 6 5 5 6 6 7 9 9 11 10 11 11 10 8
11 11 11 9 9 9 6 5 5 5 5 7 8 9 10 9 10 9 8 8 10 9
8 8 7 7 7 3 4 3 5 6 6 8 8 8 7 7 9 8 11 10 11 11
6 5 5 4 4 3 3 5 6 6 7 6 4 5 6 8 9 10 11 11 11 11
5 5 5 4 4 2 1 2 3 4 4 5 6 7 8 8 9 10 11 10 11 11
6 5 6 5 5 5 4 4 4 5 6 6 7 8 7 10 10 10 11 11 11 12
8 7 7 7 6 5 5 5 5 6 6 6 7 10 11 11 12 11 11 13 12 12
10 9 8 7 6 5 5 5 5 6 7 7 9 14 14 12 12 12 13 12 12 12
10 8 7 5 5 5 5 5 5 6 7 9 8 10 12 16 11 10 11 12 11 10
8 8 6 5 6 5 5 5 6 8 8 8 8 10 11 21 9 8 11 11 11 11
7 7 6 6 5 5 5 5 5 5 6 7 8 10 10 18 10 10 13 12 12 11
7 6 6 5 5 5 5 5 6 6 7 4 9 13 12 17 11 13 12 12 13 11
6 7 5 5 6 5 6 6 6 7 7 7 9 10 14 14 11 9 9 9 9 9
Wind_Direction
226 228 234 234 253 265 259 266 254 245 238 251 259 275 266 268 266 281 271 281 280 284
221 228 245 252 258 246 255 274 251 247 253 266 256 265 280 274 283 287 283 282 285 283
219 227 237 247 252 266 277 253 252 259 282 291 291 285 278 292 294 296 291 294 301 297
227 224 230 241 244 250 256 254 282 280 285 285 291 291 293 287 295 308 302 301 298 308
218 213 208 213 133 193 230 253 273 290 286 305 307 320 304 296 307 299 304 308 309 302
151 173 147 146 136 211 281 267 310 347 346 340 324 311 306 303 308 309 306 303 304 308
140 121 112 110 111 86 70 48 15 359 345 335 324 306 342 327 315 315 316 312 310 307
111 101 96 90 80 67 41 26 358 340 338 335 320 31 358 338 327 321 307 305 305 306
103 94 88 79 65 51 28 16 356 353 343 343 54 21 5 339 315 311 312 317 316 314
102 92 79 70 58 42 37 25 10 6 356 72 61 25 351 331 306 321 321 314 318 324
101 96 86 67 57 43 37 26 12 17 12 358 79 44 344 326 315 330 328 324 329 351
89 81 76 75 66 43 23 26 11 40 15 8 52 46 13 340 339 357 337 340 359 2
80 77 74 74 67 46 9 48 357 4 19 100 7 62 29 5 355 356 341 341 352 356
89 85 76 69 54 36 20 13 4 1 352 29 37 47 34 8 358 349 330 336 346 345